Regional Weather Roundup
Issued by NWS Upton, NY

Current Version | Previous Version | Text Only | Print | Product List | Glossary On
Versions: 1 2 3 4 5 6 7 8 9 10 11 12 13 14 15 16 17 18 19 20 21 22 23 24 25 26 27
000
ASUS41 KOKX 231305
RWROKX

Regional Weather Roundup
National Weather Service New York NY
900 AM EDT MON APR 23 2018

Note: "FAIR" indicates few or no clouds below 12,000 feet with no
significant weather and/or obstructions to visibility.

NYZ071-072-176-178-NJZ106-104-231400-
New York City Metro Area

CITY           SKY/WX    TMP DP  RH WIND       PRES   REMARKS
Central Park   FAIR      54  22  28 NE10      30.50R
Bronx Bot Gard   N/A     52  21  30 E7        30.49
Bronx Lehman C   N/A     54  21  28 E9          N/A
LaGuardia Arpt FAIR      51  28  41 NE14      30.48R
Queens College   N/A     52  30  43 E5          N/A
Kennedy Intl   FAIR      53  29  39 CALM      30.49R
Breezy Point     N/A     50 N/A N/A E3          N/A
Brooklyn Coll    N/A     54  30  40 NE3         N/A
Staten Island    N/A     54  30  40 NE5         N/A
Newark/Liberty FAIR      54  31  41 VRB3      30.47R
Teterboro      FAIR      54  24  31 E6        30.47S
$$

NYZ177-179-078>081-231400-
Long Island New York

CITY           SKY/WX    TMP DP  RH WIND       PRES   REMARKS
Jones Beach      N/A     46 N/A N/A S7          N/A
Wantagh          N/A     54  30  40 E8          N/A
Hempstead        N/A     54  30  40 E12       30.49
Matinecock Pt    N/A     46 N/A N/A E16         N/A
Farmingdale    FAIR      54  28  36 E10       30.47R
MacArthur/ISP  FAIR      55  24  30 E14       30.46F
Stony Brook      N/A     52  32  46 E7          N/A
Shirley        FAIR      56  26  31 VRB6      30.47F
Mt Sinai Harb    N/A    N/A N/A N/A NE5         N/A
Westhampton    FAIR      55  20  25 E9        30.49S
East Hampton   FAIR      52  23  31 NE7       30.49R
Southold         N/A     52  28  40 E10         N/A
Montauk          N/A     51  27  39 NE8       30.50R
$$

NYZ052-065-067-231400-
Hudson Valley

CITY           SKY/WX    TMP DP  RH WIND       PRES   REMARKS
White Plains   FAIR      53  17  24 E13       30.46S
Larchmont Harb   N/A     45 N/A N/A NE8         N/A
Croton On Huds   N/A     48 N/A N/A SW5         N/A
Somers           N/A     52  23  32 E6          N/A
Brewster         N/A     52  21  30 E6          N/A
Newburgh       SUNNY     48  28  46 VRB5      30.48F
Montgomery     FAIR      48  27  44 CALM      30.47S
Otisville        N/A     50  21  32 N3          N/A
Warwick          N/A     48  25  40 N3          N/A
Suffern          N/A     52  19  28 NE3         N/A
Poughkeepsie   FAIR      47  25  42 CALM      30.48F
Albany         FAIR      47  25  42 CALM      30.51S
$$

NJZ001-105-106-008-010-013-015-019>022-104-231400-
New Jersey

CITY           SKY/WX    TMP DP  RH WIND       PRES   REMARKS
Newark/Liberty FAIR      54  31  41 VRB3      30.47R
Teterboro      FAIR      54  24  31 E6        30.47S
Caldwell       FAIR      52  23  32 NE9       30.48R
Somerville     FAIR      52  31  44 CALM      30.46R
Linden         FAIR      53  27  37 CALM      30.48R
Perth Amboy      N/A     50 N/A N/A W1          N/A
Sussex         FAIR      52  24  33 NE7       30.47F
Andover          N/A     50  26  39 VRB3      30.47S
Trenton        FAIR      55  30  38 E7        30.47R
Millville      FAIR      52  38  58 E3        30.47S
Atlantic City  FAIR      56  36  47 CALM      30.48R
Wrightstown    FAIR      53  36  53 CALM      30.45
Toms River     FAIR      51  35  54 CALM      30.48S
Belmar         FAIR      53  32  44 NE5       30.49R
$$

PAZ047>061-062-071-231400-
Eastern Pennsylvania

CITY           SKY/WX    TMP DP  RH WIND       PRES   REMARKS
Philadelphia   FAIR      53  39  59 CALM      30.48R
Allentown      FAIR      52  26  36 E6        30.47R
Scranton       FAIR      49  25  39 N5        30.46R
$$

CTZ002-004>006-009-010-012-RIZ004-006-007-MAZ004-011-015-231400-
Southern New England

 In CT

CITY           SKY/WX    TMP DP  RH WIND       PRES   REMARKS
Bradley Intl   FAIR      48  24  39 NE6       30.51R
Hartford       FAIR      48  26  42 NW3       30.51S
Danbury        FAIR      49  23  36 NE8       30.49S
Wtrbury/Oxford FAIR      50  20  30 E8        30.49R
Norwalk Harbor   N/A     48 N/A N/A NE12        N/A
Bridgeport     FAIR      53  23  31 NE14      30.48F
Meriden        FAIR      51  23  33 N7        30.50S
New Haven      FAIR      53  24  32 NE5       30.49S
Chester        FAIR      54  16  22 NE7       30.49S
Groton         FAIR      55  24  30 NE8       30.49S
Willimantic    FAIR      47  28  47 E3        30.50F

 In RI

CITY           SKY/WX    TMP DP  RH WIND       PRES   REMARKS
Providence     FAIR      54  22  28 NE7       30.50S
Block Island   FAIR      50  28  42 NE8       30.50R
Westerly       FAIR      55  21  26 NE6       30.50R

In MA

CITY           SKY/WX    TMP DP  RH WIND       PRES   REMARKS
Boston         FAIR      52  20  28 N3        30.50R
Worcester      FAIR      50  18  28 SE3       30.49R
Westfield      FAIR      47  25  42 VRB3      30.51R
Provincetown   FAIR      47  37  68 N8        30.50R
Nantucket      FAIR      50  36  58 N12       30.48R
$$

ANZ330-335-338-340-345-350-353-355-231400-
Coastal Marine Observations


STATION/POSITION TIME  SKY/WX   TEMP    WIND        PRES    VSBY  WAVE
                                AIR SEA DIR/SP/G                  HT/PER
                 (UTC)          (F)     (DEG/KT/KT) (MB)    (MI)  (FT/S)
NY Harb Entrance 1250            45 46  290/  2/  4 1032.2          1/15
20 S Fire Island 1250            45 44   40/  2/  4 1032.3          1/ 8
23 SSW Montauk P 1250            46 44   40/  6/  8 1032.6          1/15
15 E Barnegat Li 1230               45                N/A           1/14
Hudson Canyon    1250            46 46  170/  4/  4 1032.1          1/15
Kings Point      1242            47 45   50/  5/  7 1032.9
Execution Rocks  NOT AVBL
Western LI Sound NOT AVBL
Central LI Sound 1230            45      CALM  /  2   N/A           0
Robbins Reef     1242            51      60/  8/ 10 1032.4
$$


>>>>>>>>>>>>>>>>>>>>>>>>>>>> KEY <<<<<<<<<<<<<<<<<<<<<<<<<<<
>                                                          <
>     SKY/WX - Sky Condition/Present Weather               <
>     TMP    - Temperature in Fahrenheit                   <
>     DP     - Dew Point in Fahrenheit                     <
>     RH     - Relative Humidity in Percent                <
>     WIND   - Direction (from) and Speed in MPH           <
>     PRES   - Mean Sea Level Pressure (inches of Hg)      <
>     WCI    - Wind Chill Index                            <
>     VSB    - Visibility in Miles                         <
>     HX     - Heat Index                                  <
>     TC     - Temperature in Celsius                      <
>     VRB    - Varibale Wind Direction                     <
>                                                          <
>>>>>>>>>>>>>>>>>>>>>>>>>>>> KEY <<<<<<<<<<<<<<<<<<<<<<<<<<<




USA.gov is the U.S. government's official web portal to all federal, state and local government web resources and services.